Flag for Bosnia-Herzegovina Weather past 2 weeks in Tuzla, Bosnia-Herzegovina

Now
64 °F

Thunderstorms. Broken clouds.


Feels Like: 64 °F
Forecast: 63 / 87 °F
Wind: 8 mph from South

Location: Tuzla

Current Time: Aug 2, 2015 at 8:30:04 PM

Latest Report: Aug 2, 2015 at 8:00 PM


Visibility: N/A

Pressure: 30.07 "Hg

Humidity: 100%

Dew point: 64 °F

Location of TuzlaLocation

Historic Weather in Tuzla — Graph

°F

Tuzla temperature yesterday

Maximum temperature yesterday: 82 °F (at 5:00 PM)
Minimum temperature yesterday: 52 °F (at 6:00 AM)
Average temperature yesterday: 70 °F

Past Weeks' High & Low Weather Summary

 TemperatureHumidityPressure
High97 °F (Jul 19, 3:00 PM)100% (Jul 18, 7:00 PM)30.09 "Hg (Jul 18, 7:00 PM)
Low52 °F (Aug 1, 6:00 AM)28% (Jul 22, 2:00 PM)29.68 "Hg (Jul 27, 3:00 PM)
Average78 °F65%29.91 "Hg
* Reported Jul 18 7:00 PM — Aug 2 7:30 PM, Tuzla, Weather by CustomWeather, © 2015

Note: Actual official high and low records may vary slightly from our data, if they occured in-between our weather recording intervals... More about our weather records

Advertising

Tuzla weather history for previous 24 hours

 ConditionsComfort  
Time TempWeatherWind HumidityBarometerVisibility
7:30 PM
Sun, Aug 2
66 °FThunderstorms. Broken clouds.17 mph100%30.07 "Hg1 mi
7:00 PM68 °FThunderstorms. More clouds than sun.17 mph100%30.04 "Hg2 mi
6:30 PM84 °FThunderstorms. Broken clouds.6 mph62%29.98 "HgN/A
6:00 PM86 °FThunderstorms. Broken clouds.9 mph62%29.98 "HgN/A
5:30 PM90 °FScattered clouds.9 mph55%29.98 "HgN/A
5:00 PM90 °FScattered clouds.7 mph55%29.98 "HgN/A
4:30 PM88 °FScattered clouds.5 mph59%29.98 "HgN/A
4:00 PM88 °FScattered clouds.2 mph59%30.01 "HgN/A
3:30 PM86 °FLight rain. Partly sunny.5 mph62%30.01 "HgN/A
3:00 PM90 °FScattered clouds.5 mph55%30.01 "HgN/A
2:30 PM91 °FScattered clouds.5 mph52%30.01 "HgN/A
2:00 PM90 °FScattered clouds.3 mph55%30.01 "HgN/A
1:30 PM88 °FScattered clouds.6 mph55%30.01 "HgN/A
1:00 PM88 °FPassing clouds.5 mph52%30.01 "HgN/A
12:30 PM84 °FPassing clouds.5 mph62%30.04 "HgN/A
12:00 PM82 °FPassing clouds.5 mph66%30.04 "HgN/A
11:30 AM81 °FScattered clouds.6 mph62%30.04 "HgN/A
11:00 AM79 °FScattered clouds.6 mph65%30.04 "HgN/A
10:00 AM77 °FPassing clouds.3 mph74%30.04 "HgN/A
9:00 AM73 °FPassing clouds.2 mph83%30.01 "HgN/A
8:00 AM68 °FSunny.1 mph94%30.01 "Hg10 mi
7:00 AM63 °FSunny.2 mph100%30.01 "Hg10 mi
6:30 AM61 °FClear.5 mph100%30.01 "Hg10 mi
6:00 AM61 °FClear.3 mph100%29.98 "Hg10 mi
5:30 AM61 °FClear.1 mph100%29.98 "Hg10 mi
10:30 PM
Sat, Aug 1
63 °FClear.2 mph94%30.01 "Hg10 mi
10:00 PM66 °FClear.2 mph88%30.01 "Hg10 mi
9:30 PM66 °FClear.2 mph88%30.01 "Hg10 mi
9:00 PM70 °FSunny.3 mph83%30.01 "Hg10 mi
8:00 PM73 °FSunny.2 mph69%29.98 "Hg10 mi
Weather by CustomWeather, © 2015

See weather overviewHow to use our weather pages